Zurück zum Katalog

INTELSAT 904

AktivKommunikationGEO
NORAD 27380·PAYLOAD· XX

Gestartet Feb 23, 2002 von Guiana Space Centre

Loading…

TLE

AktuellSource: CelesTrak SupGP

Epoche: Sep 14, 2026, 00:00 UTC

1 27380C 02007A   26257.00000000 -.00000133  00000+0  00000+0 0  2574
2 27380   7.1373  68.0928 0004920 149.7700 103.6449  1.00273548    17

Verfolge INTELSAT 904 in Echtzeit mit AllMySat

Download on the App Store